map of KLLQ home
Great Circle Mapper logo
KLLQ - Airport
Location
City:  Monticello, Arkansas, United States
Name:Monticello Municipal/Ellis Field
ICAO:KLLQ
FAA:LLQ

Details
Type:Airport (Airfield)
Use:Public/Civil
Latitude:3338'19"N (33.638556)
Longitude:9145'04"W (-91.750999)
Datum:WGS 1984
Elevation:267 ft (81 m)
Variation:0.2E (WMM2010 magnetic declination)
Runways:1
Longest:5020 × 75 ft (1530 × 23 m), paved

Time
Time Zone:UTC-6 (DST-5)
Local Time:

Weather
METAR:KLLQ 242353Z AUTO 25003KT 10SM CLR 08/03 A3001 RMK AO2 SLP163 T00830028 10156 20083 51020
TAF:KLLQ 242320Z 2500/2524 27003KT P6SM SKC
FM251400 33006KT P6SM SKC

Related Locations
Nearby:
Farthest:MGV: 10903 mi / 17547 km
Margaret River, WA, AU

Find:

   beyond  
but within

Other Information
Maps:
NOTAMs:
Links:
Sources:

  
flag of United States
flag of Arkansas
  

Sectional Chart

Flight Planning
at skyvector.com

Satellite Image

Google Maps Satellite View

 

Copyright © 2004-2014 Karl L. Swartz. All rights reserved.
The Great Circle Mapper name and logo are trademarks of the Great Circle Mapper.
All other trademarks mentioned herein belong to their respective owners.
Please see credits for attibutions and further copyright information.

  Follow gcmap on Facebook Follow gcmap on Twitter

hCard Microformat

Geo Microformat